Flag for Sweden Weather past 2 weeks in Eskilstuna, Sweden

Now
14 °F

Cold.


Feels Like: 6 °F
Forecast: 9 / 15 °F
Wind: 5 mph from Northwest

Location: Vasteras / Hasslo

Current Time: Dec 27, 2014 at 4:19:25 PM

Latest Report: Dec 27, 2014 at 3:50 PM


Visibility: N/A

Pressure: 30.01 "Hg

Humidity: 85%

Dew point: 10 °F

Location of EskilstunaLocation

Historic Weather in Eskilstuna — Graph

°F

Eskilstuna temperature yesterday

Maximum temperature yesterday: 21 °F (at 1:20 PM)
Minimum temperature yesterday: 12 °F (at 12:20 AM)
Average temperature yesterday: 17 °F

Past Weeks' High & Low Weather Summary

 TemperatureHumidityPressure
High41 °F (Dec 15, 10:50 AM)100% (Dec 12, 11:20 PM)30.12 "Hg (Dec 12, 11:20 PM)
Low7 °F (Dec 27, 8:20 AM)62% (Dec 26, 9:20 AM)28.88 "Hg (Dec 13, 12:20 AM)
Average30 °F86%29.46 "Hg
* Reported Dec 12 3:20 PM — Dec 27 3:20 PM, Eskilstuna, Weather by CustomWeather, © 2014

Note: Actual official high and low records may vary slightly from our data, if they occured in-between our weather recording intervals... More about our weather records

Advertising

Eskilstuna weather history for previous 24 hours

 ConditionsComfort  
Time TempWeatherWind HumidityBarometerVisibility
3:20 PM
Dec 27
14 °FCold.3 mph85%30.01 "HgN/A
2:50 PM12 °FCold.No wind85%29.98 "HgN/A
2:20 PM16 °FCold.3 mph79%29.98 "HgN/A
1:50 PM16 °FCold.5 mph79%29.98 "HgN/A
1:20 PM18 °FCold.3 mph73%29.98 "HgN/A
12:50 PM18 °FCold.3 mph79%29.98 "HgN/A
12:20 PM16 °FCold.6 mph79%29.98 "HgN/A
11:50 AM16 °FCold.3 mph79%29.98 "HgN/A
11:20 AM16 °FCold.No wind79%29.98 "HgN/A
10:50 AM14 °FCold.2 mph85%29.95 "HgN/A
10:20 AM14 °FCold.5 mph85%29.95 "HgN/A
9:50 AM12 °FCold.5 mph92%29.95 "HgN/A
9:20 AM9 °FSnow flurries. Cloudy.3 mph85%29.95 "HgN/A
8:50 AM10 °FCold.3 mph85%29.95 "HgN/A
8:20 AM7 °FFrigid.No wind85%29.95 "HgN/A
7:50 AM9 °FFrigid.No wind92%29.95 "HgN/A
7:20 AM10 °FCold.5 mph92%29.95 "HgN/A
6:50 AM12 °FCold.6 mph92%29.92 "HgN/A
6:20 AM12 °FCold.7 mph85%29.92 "HgN/A
5:50 AM12 °FCold.6 mph85%29.92 "HgN/A
5:20 AM12 °FCold.5 mph85%29.92 "HgN/A
4:20 AM9 °FFrigid.3 mph85%29.95 "HgN/A
3:50 AM12 °FCold.3 mph92%29.92 "HgN/A
3:20 AM12 °FCold.3 mph92%29.95 "HgN/A
2:50 AM14 °FCold.3 mph92%29.95 "HgN/A
2:20 AM16 °FCold.2 mph93%29.95 "HgN/A
1:50 AM18 °FPassing clouds.1 mph93%29.95 "HgN/A
1:20 AM19 °FCold.1 mph86%29.95 "HgN/A
12:50 AM19 °FCold.2 mph86%29.95 "HgN/A
12:20 AM19 °FCold.2 mph86%29.95 "HgN/A
11:50 PM
Dec 26
19 °FLight snow. Overcast.1 mph86%29.95 "Hg2 mi
11:20 PM19 °FLight snow. Overcast.3 mph86%29.98 "Hg3 mi
10:50 PM21 °FLight snow. Overcast.5 mph74%29.98 "Hg6 mi
10:20 PM19 °FCold.3 mph73%29.98 "HgN/A
9:50 PM19 °FCold.2 mph73%29.98 "HgN/A
9:20 PM19 °FCold.6 mph73%29.98 "HgN/A
8:50 PM19 °FCold.8 mph73%29.98 "HgN/A
8:20 PM19 °FCold.7 mph73%29.98 "HgN/A
7:50 PM19 °FCold.7 mph73%30.01 "HgN/A
7:20 PM19 °FCold.10 mph68%30.01 "HgN/A
6:50 PM19 °FCold.8 mph68%30.01 "HgN/A
6:20 PM21 °FCold.7 mph68%30.01 "HgN/A
5:20 PM21 °FCold.10 mph68%30.01 "HgN/A
4:50 PM21 °FCold.12 mph68%30.01 "HgN/A
4:20 PM21 °FCold.7 mph63%30.04 "HgN/A
Weather by CustomWeather, © 2014

See weather overviewHow to use our weather pages